Regional Weather Roundup
Issued by NWS

Home | Current Version | Previous Version | Text Only | Print | Product List | Glossary On
Versions: 1 2 3 4 5 6 7 8 9 10 11 12 13 14 15 16 17 18 19 20 21 22 23 24 25 26 27 28 29 30 31 32 33 34 35 36 37 38 39 40 41 42 43 44 45 46 47 48 49 50
000
ASUS45 KSLC 180310
RWRUT

UTAH REGIONAL WEATHER ROUNDUP
NATIONAL WEATHER SERVICE SALT LAKE CITY UT
900 PM MDT FRI APR 17 2015

UTZ001>011-023>025-180400-

NORTHERN UTAH

CITY           SKY/WX    TMP DP  RH WIND       PRES   REMARKS
BRIGHAM CITY   CLOUDY    59  38  45 S6        30.01R
HILL AFB       MOCLDY    53  37  53 E9        30.03R
LOGAN          MOCLDY    57  37  47 N7        30.00R
OGDEN          MOCLDY    57  36  45 CALM      30.01R
PROVO AIRPORT  MOCLDY    55  36  47 NW10G16   30.03R
SALT LAKE CITY MOCLDY    55  37  50 SE6       30.01S
VERNAL         CLOUDY    46  32  58 N9        30.04S
WENDOVER       CLEAR     57  21  24 W5        30.02R
HEBER CITY     CLOUDY    48  34  57 NW7       30.06R
WEST JORDAN    CLEAR     54  37  54 N8        30.04R

$$

UTZ012>022-026-027-180400-

SOUTHERN/CENTRAL UTAH

CITY           SKY/WX    TMP DP  RH WIND       PRES   REMARKS
BLANDING       CLOUDY    34  34  99 N5        30.11R WCI  30
BRYCE CANYON   PTCLDY    37  28  70 NW10      30.08S WCI  30
CEDAR CITY     PTCLDY    45  29  53 NE8       30.05R
DELTA          PTCLDY    54  28  36 N6        30.02R
HANKSVILLE     CLOUDY    45  41  87 S5        30.06S
MILFORD        PTCLDY    48  29  47 NW6       30.03R
MOAB/CYNLANDS  PTCLDY    40  39  97 E3        30.00F
PRICE          NOT AVBL
ST GEORGE      MOCLDY    61  27  27 SE7       29.98R
KANAB          MOCLDY    50  32  50 CALM      30.07R

$$

REGIONAL REPORTS     COLORADO/ARIZONA

CITY           SKY/WX    TMP DP  RH WIND       PRES   REMARKS
CRAIG, CO      MOCLDY    38  35  89 SW7       30.00R WCI  33
GRAND JUNCTION LGT RAIN  36  35  96 SW5       30.03S WCI  32
RIFLE          MOCLDY    36  34  92 SW5       30.04S WCI  32
MONTROSE       LGT SNOW  35  33  92 SE6       30.05R FOG     WCI  30
CORTEZ         LGT RAIN  37  32  82 NE7       30.05R WCI  32
PAGE, AZ       CLOUDY    58  32  37 NW5       29.98R
GRAND CANYON   PTCLDY    36  27  69 CALM      30.09R
KINGMAN        PTCLDY    53  21  28 SE5       30.01R
FLAGSTAFF      MOCLDY    38  26  62 CALM      30.11R

$$

REGIONAL REPORTS    NEVADA/IDAHO/WYOMING

CITY           SKY/WX    TMP DP  RH WIND       PRES   REMARKS
LAS VEGAS, NV  CLEAR     77  14   9 S13       29.87S
ELY            CLEAR     51  12  21 NW9       30.08R
ELKO           CLEAR     58  17  20 NW10      30.07R
POCATELLO, ID  CLEAR     55  27  34 S10       30.03R
BURLEY         CLEAR     52  27  38 S7        30.02R
EVANSTON, WY   MOCLDY    39  32  76 NE6       30.12S WCI  35
ROCK SPRINGS   LGT RAIN  35  33  92 NE21      30.10R WCI  24
KEMMERER       MOCLDY    36  34  93 S6        30.14R WCI  31

$$


USA.gov is the U.S. government's official web portal to all federal, state and local government web resources and services.